Zurück zum Katalog

STARLINK-5853

AktivKommunikationVLEO
NORAD 56881·PAYLOAD·🇺🇸 United States

Gestartet Jun 12, 2023 von Cape Canaveral Space Force Station

Loading…

Nächste Überflüge (nächste 24 Stunden)

TLE

AktuellSource: CelesTrak SupGP

Epoche: Sep 14, 2026, 20:46 UTC

1 56881C 23083F   26257.86576389 -.00014506  00000+0 -52556-3 0  2578
2 56881  43.0000  97.2302 0001519 258.1590 249.6959 15.27576367    10

Verfolge STARLINK-5853 in Echtzeit mit AllMySat

Download on the App Store